START_TIME,STEP,MOV.,M29,t_acc.,H22,t_acc.,H26,t_acc.,H30,t_acc.
1979-07-21 18:00:31.580 ,1,1,0.,24.0,0.,24.0,0.,24.0,0.,24.0
1979-07-21 18:00:55.580 ,2,1,0.,24.0,0.,24.0,0.,24.0,0.,24.0
1979-07-21 18:01:19.580 ,6,1,0.,24.0,0.,24.0,0.,24.0,0.,24.0
1979-07-21 18:01:43.580 ,5,1,0.,24.0,0.,24.0,0.,24.0,0.,24.0
1979-07-21 18:02:07.580 ,1,1,0.,24.0,0.,24.0,0.,24.0,0.,24.0
1979-07-21 18:02:31.580 ,2,1,0.,24.0,0.,24.0,0.,24.0,0.,24.0
1979-07-21 18:02:55.580 ,6,1,0.,24.0,0.,24.0,0.,24.0,0.,24.0
1979-07-21 18:03:19.580 ,5,1,0.,24.0,0.,24.0,0.,24.0,0.,24.0
1979-07-21 18:03:43.580 ,1,1,0.,24.0,0.,24.0,0.,24.0,0.,24.0
1979-07-21 18:04:07.580 ,2,1,0.,24.0,0.,24.0,0.,24.0,0.,24.0
1979-07-21 18:04:31.580 ,6,1,0.,24.0,0.,24.0,0.,24.0,0.,24.0
1979-07-21 18:04:55.580 ,5,1,0.,24.0,0.,24.0,0.,24.0,0.,24.0
1979-07-21 18:05:19.580 ,0,0,0.,24.0,0.,24.0,0.,24.0,0.,24.0
1979-07-21 18:05:45.380 ,0,0,0.,24.0,0.,24.0,0.,24.0,0.,24.0
1979-07-21 18:06:07.580 ,0,0,0.,24.0,0.,24.0,0.,24.0,0.,24.0
1979-07-21 18:06:31.580 ,5,1,0.,24.0,0.,24.0,0.,24.0,0.,24.0
1979-07-21 18:06:55.580 ,5,0,0.,24.0,0.,24.0,0.,24.0,0.,24.0
1979-07-21 18:07:19.580 ,4,1,0.,24.0,0.,24.0,0.,24.0,0.,24.0
1979-07-21 18:07:43.580 ,4,0,0.,24.0,0.,24.0,0.,24.0,0.,24.0
1979-07-21 18:08:07.580 ,3,1,0.,24.0,0.,24.0,0.,24.0,0.,24.0
1979-07-21 18:08:31.580 ,3,0,0.,24.0,0.,24.0,0.,24.0,0.,24.0
1979-07-21 18:08:55.580 ,2,1,0.,24.0,0.,24.0,0.,24.0,0.,24.0
1979-07-21 18:09:19.580 ,2,0,0.,24.0,0.,24.0,0.,24.0,0.,24.0
1979-07-21 18:09:43.580 ,1,1,0.,24.0,0.,24.0,0.,24.0,0.,24.0
1979-07-21 18:10:07.580 ,1,0,0.,24.0,0.,24.0,0.,24.0,0.,24.0
1979-07-21 18:10:31.580 ,0,1,0.,24.0,0.,24.0,0.,24.0,0.,24.0
1979-07-21 18:10:55.580 ,0,0,0.,24.0,0.,24.0,0.,24.0,0.,24.0
1979-07-21 18:11:19.580 ,0,1,0.,24.0,0.,24.0,0.,24.0,0.,24.0
1979-07-21 18:11:43.580 ,0,0,0.,24.0,0.,24.0,0.,24.0,0.,24.0
1979-07-21 18:12:07.580 ,1,1,1.,24.0,0.,24.0,0.,24.0,0.,24.0
1979-07-21 18:12:31.580 ,1,0,0.,24.0,0.,24.0,0.,24.0,0.,24.0
1979-07-21 18:12:55.580 ,2,1,0.,24.0,0.,24.0,0.,24.0,0.,24.0
1979-07-21 18:13:19.580 ,2,0,0.,24.0,0.,24.0,0.,24.0,0.,24.0
1979-07-21 18:13:43.580 ,3,1,0.,24.0,0.,24.0,0.,24.0,0.,24.0
1979-07-21 18:14:07.580 ,3,0,0.,24.0,0.,24.0,0.,24.0,0.,24.0
1979-07-21 18:14:31.580 ,4,1,0.,24.0,0.,24.0,0.,24.0,0.,24.0
1979-07-21 18:14:55.580 ,4,0,0.,24.0,0.,24.0,0.,24.0,0.,24.0
1979-07-21 18:15:19.580 ,5,1,0.,24.0,0.,24.0,0.,24.0,0.,24.0
1979-07-21 18:15:43.580 ,5,0,0.,24.0,0.,24.0,0.,24.0,0.,24.0
1979-07-21 18:16:07.580 ,6,1,0.,24.0,0.,24.0,0.,24.0,0.,24.0
1979-07-21 18:16:31.580 ,6,0,0.,24.0,0.,24.0,0.,24.0,0.,24.0
1979-07-21 18:16:55.580 ,7,1,0.,24.0,0.,24.0,0.,24.0,0.,24.0
1979-07-21 18:17:19.580 ,7,0,0.,24.0,0.,24.0,0.,24.0,0.,24.0
1979-07-21 18:17:43.580 ,7,1,0.,24.0,0.,24.0,0.,24.0,0.,24.0
1979-07-21 18:18:07.580 ,7,0,0.,24.0,0.,24.0,0.,24.0,0.,24.0
1979-07-21 18:18:31.580 ,6,1,0.,24.0,0.,24.0,0.,24.0,0.,24.0
1979-07-21 18:18:55.580 ,6,0,0.,24.0,0.,24.0,0.,24.0,0.,24.0
1979-07-21 18:19:19.580 ,5,1,0.,24.0,0.,24.0,0.,24.0,0.,24.0
1979-07-21 18:19:43.580 ,5,0,0.,24.0,0.,24.0,0.,24.0,0.,24.0
1979-07-21 18:20:07.580 ,4,1,0.,24.0,0.,24.0,0.,24.0,0.,24.0
1979-07-21 18:20:31.580 ,4,0,0.,24.0,0.,24.0,0.,24.0,0.,24.0
1979-07-21 18:20:55.580 ,3,1,0.,24.0,0.,24.0,0.,24.0,0.,24.0
1979-07-21 18:21:19.580 ,3,0,0.,24.0,0.,24.0,0.,24.0,0.,24.0
1979-07-21 18:21:43.580 ,2,1,0.,24.0,0.,24.0,0.,24.0,0.,24.0
1979-07-21 18:22:07.580 ,2,0,0.,24.0,0.,24.0,0.,24.0,0.,24.0
1979-07-21 18:22:31.580 ,1,1,0.,24.0,0.,24.0,0.,24.0,0.,24.0
1979-07-21 18:22:55.580 ,1,0,0.,24.0,0.,24.0,0.,24.0,0.,24.0
1979-07-21 18:23:19.580 ,0,1,0.,24.0,0.,24.0,0.,24.0,0.,24.0
1979-07-21 18:23:43.580 ,0,0,0.,24.0,0.,24.0,0.,24.0,0.,24.0
1979-07-21 18:24:07.580 ,0,1,0.,24.0,0.,24.0,0.,24.0,0.,24.0
1979-07-21 18:24:31.580 ,0,0,0.,24.0,0.,24.0,0.,24.0,0.,24.0
1979-07-21 18:24:55.580 ,1,1,0.,24.0,0.,24.0,0.,24.0,0.,24.0
1979-07-21 18:25:19.580 ,1,0,0.,24.0,0.,24.0,0.,24.0,0.,24.0
1979-07-21 18:25:43.580 ,2,1,0.,24.0,0.,24.0,0.,24.0,0.,24.0
1979-07-21 18:26:07.580 ,2,0,0.,24.0,0.,24.0,0.,24.0,0.,24.0
1979-07-21 18:26:31.580 ,3,1,0.,24.0,0.,24.0,0.,24.0,0.,24.0
1979-07-21 18:26:55.580 ,3,0,0.,24.0,0.,24.0,0.,24.0,0.,24.0
1979-07-21 18:27:19.580 ,4,1,0.,24.0,0.,24.0,0.,24.0,0.,24.0
1979-07-21 18:27:43.580 ,4,0,0.,24.0,0.,24.0,0.,24.0,0.,24.0
1979-07-21 18:28:07.580 ,5,1,0.,24.0,0.,24.0,0.,24.0,0.,24.0
1979-07-21 18:28:31.580 ,5,0,0.,24.0,0.,24.0,0.,24.0,0.,24.0
1979-07-21 18:28:55.580 ,6,1,0.,24.0,0.,24.0,0.,24.0,0.,24.0
1979-07-21 18:29:19.580 ,6,0,0.,24.0,0.,24.0,0.,24.0,0.,24.0
1979-07-21 18:29:43.580 ,7,1,0.,24.0,0.,24.0,0.,24.0,0.,24.0
1979-07-21 18:30:07.580 ,7,0,0.,24.0,0.,24.0,0.,24.0,0.,24.0
1979-07-21 18:30:31.580 ,7,1,0.,24.0,0.,24.0,0.,24.0,0.,24.0
1979-07-21 18:30:55.580 ,7,0,0.,24.0,0.,24.0,0.,24.0,0.,24.0
1979-07-21 18:31:19.580 ,6,1,0.,24.0,0.,24.0,0.,24.0,0.,24.0
1979-07-21 18:31:43.580 ,6,0,0.,24.0,0.,24.0,0.,24.0,0.,24.0
1979-07-21 18:32:07.580 ,5,1,0.,24.0,0.,24.0,0.,24.0,0.,24.0
1979-07-21 18:32:31.580 ,5,0,0.,24.0,0.,24.0,0.,24.0,0.,24.0
1979-07-21 18:32:55.580 ,4,1,0.,24.0,0.,24.0,0.,24.0,0.,24.0
1979-07-21 18:33:19.580 ,4,0,0.,24.0,0.,24.0,0.,24.0,0.,24.0
1979-07-21 18:33:43.580 ,3,1,0.,24.0,0.,24.0,0.,24.0,0.,24.0
1979-07-21 18:34:07.580 ,3,0,0.,24.0,0.,24.0,0.,24.0,0.,24.0
1979-07-21 18:34:31.580 ,2,1,0.,24.0,0.,24.0,0.,24.0,0.,24.0
1979-07-21 18:34:55.580 ,2,0,0.,24.0,0.,24.0,0.,24.0,0.,24.0
1979-07-21 18:35:19.580 ,1,1,0.,24.0,0.,24.0,0.,24.0,0.,24.0
1979-07-21 18:35:43.580 ,1,0,0.,24.0,0.,24.0,0.,24.0,0.,24.0
1979-07-21 18:36:07.580 ,0,1,0.,24.0,0.,24.0,0.,24.0,0.,24.0
1979-07-21 18:36:31.580 ,0,0,0.,24.0,0.,24.0,0.,24.0,0.,24.0
1979-07-21 18:36:55.580 ,0,1,0.,24.0,0.,24.0,0.,24.0,0.,24.0
1979-07-21 18:37:19.580 ,0,0,0.,24.0,0.,24.0,0.,24.0,0.,24.0
1979-07-21 18:37:43.580 ,1,1,0.,24.0,0.,24.0,0.,24.0,0.,24.0
1979-07-21 18:38:07.580 ,1,0,0.,24.0,0.,24.0,0.,24.0,0.,24.0
1979-07-21 18:38:31.580 ,2,1,0.,24.0,0.,24.0,0.,24.0,0.,24.0
1979-07-21 18:38:55.580 ,2,0,0.,24.0,0.,24.0,0.,24.0,0.,24.0
1979-07-21 18:39:19.580 ,3,1,0.,24.0,0.,24.0,0.,24.0,0.,24.0
1979-07-21 18:39:43.580 ,3,0,0.,24.0,0.,24.0,0.,24.0,0.,24.0
1979-07-21 18:40:07.580 ,4,1,0.,24.0,0.,24.0,0.,24.0,0.,24.0
1979-07-21 18:40:31.580 ,4,0,0.,24.0,0.,24.0,0.,24.0,0.,24.0
1979-07-21 18:40:55.580 ,5,1,0.,24.0,0.,24.0,0.,24.0,0.,24.0
1979-07-21 18:41:19.580 ,5,0,0.,24.0,0.,24.0,0.,24.0,0.,24.0
1979-07-21 18:41:43.580 ,6,1,0.,24.0,0.,24.0,0.,24.0,0.,24.0
1979-07-21 18:42:07.580 ,6,0,0.,24.0,0.,24.0,0.,24.0,0.,24.0
1979-07-21 18:42:31.580 ,7,0,0.,24.0,0.,24.0,0.,24.0,0.,24.0
1979-07-21 18:42:55.580 ,7,0,0.,24.0,0.,24.0,0.,24.0,0.,24.0
1979-07-21 18:43:19.580 ,5,1,0.,24.0,0.,24.0,0.,24.0,0.,24.0
1979-07-21 18:43:43.580 ,1,1,0.,24.0,0.,24.0,0.,24.0,0.,24.0
1979-07-21 18:44:07.580 ,2,1,0.,24.0,0.,24.0,0.,24.0,0.,24.0
1979-07-21 18:44:31.580 ,6,1,1.,24.0,0.,24.0,0.,24.0,0.,24.0
1979-07-21 18:44:55.580 ,5,1,0.,24.0,0.,24.0,0.,24.0,0.,24.0
1979-07-21 18:45:19.580 ,1,1,0.,24.0,0.,24.0,0.,24.0,0.,24.0
1979-07-21 18:45:43.580 ,2,1,0.,24.0,0.,24.0,0.,24.0,0.,24.0
1979-07-21 18:46:07.580 ,6,1,0.,24.0,0.,24.0,0.,24.0,0.,24.0
1979-07-21 18:46:31.580 ,5,1,0.,24.0,0.,24.0,0.,24.0,0.,24.0
1979-07-21 18:46:55.580 ,1,1,0.,24.0,0.,24.0,0.,24.0,0.,24.0
1979-07-21 18:47:19.580 ,2,1,0.,24.0,0.,24.0,0.,24.0,0.,24.0
1979-07-21 18:47:43.580 ,6,1,0.,24.0,0.,24.0,0.,24.0,0.,24.0
1979-07-21 18:48:07.580 ,5,1,0.,24.0,0.,24.0,0.,24.0,0.,24.0
1979-07-21 18:48:31.580 ,1,1,0.,24.0,0.,24.0,0.,24.0,0.,24.0
1979-07-21 18:48:55.580 ,2,1,1.,24.0,0.,24.0,0.,24.0,0.,24.0
1979-07-21 18:49:19.580 ,6,1,0.,24.0,0.,24.0,0.,24.0,0.,24.0
1979-07-21 18:49:43.580 ,5,1,0.,24.0,0.,24.0,0.,24.0,0.,24.0
1979-07-21 18:50:07.580 ,1,1,0.,24.0,0.,24.0,0.,24.0,0.,24.0
1979-07-21 18:50:31.580 ,2,1,0.,24.0,0.,24.0,0.,24.0,0.,24.0
1979-07-21 18:50:55.580 ,6,1,0.,24.0,0.,24.0,0.,24.0,0.,24.0
1979-07-21 18:51:19.580 ,5,1,0.,24.0,0.,24.0,0.,24.0,0.,24.0
1979-07-21 18:51:43.580 ,1,1,0.,24.0,0.,24.0,0.,24.0,0.,24.0
1979-07-21 18:52:07.580 ,2,1,0.,24.0,0.,24.0,0.,24.0,0.,24.0
1979-07-21 18:52:31.580 ,6,1,0.,24.0,0.,24.0,0.,24.0,0.,24.0
1979-07-21 18:52:55.580 ,5,1,0.,24.0,0.,24.0,0.,24.0,0.,24.0
1979-07-21 18:53:19.580 ,1,1,0.,24.0,0.,24.0,0.,24.0,0.,24.0
1979-07-21 18:53:43.580 ,0,0,0.,24.0,0.,24.0,0.,24.0,0.,24.0
1979-07-21 18:54:07.580 ,0,0,0.,24.0,0.,24.0,0.,24.0,0.,24.0
1979-07-21 18:54:31.580 ,5,1,1.,24.0,0.,24.0,0.,24.0,0.,24.0
1979-07-21 18:54:55.580 ,5,0,0.,24.0,0.,24.0,0.,24.0,0.,24.0
1979-07-21 18:55:19.580 ,4,1,0.,24.0,0.,24.0,0.,24.0,0.,24.0
1979-07-21 18:55:43.580 ,4,0,1.,24.0,0.,24.0,0.,24.0,0.,24.0
1979-07-21 18:56:07.580 ,3,1,0.,24.0,0.,24.0,0.,24.0,0.,24.0
1979-07-21 18:56:31.580 ,3,0,0.,24.0,0.,24.0,0.,24.0,0.,24.0
1979-07-21 18:56:55.580 ,2,1,0.,24.0,0.,24.0,0.,24.0,0.,24.0
1979-07-21 18:57:19.580 ,2,0,0.,24.0,0.,24.0,0.,24.0,0.,24.0
1979-07-21 18:57:43.580 ,1,1,1.,24.0,0.,24.0,0.,24.0,0.,24.0
1979-07-21 18:58:07.580 ,1,0,0.,24.0,0.,24.0,0.,24.0,0.,24.0
1979-07-21 18:58:31.580 ,0,1,0.,24.0,0.,24.0,0.,24.0,0.,24.0
1979-07-21 18:58:55.580 ,0,0,0.,24.0,0.,24.0,0.,24.0,0.,24.0
1979-07-21 18:59:19.580 ,0,1,0.,24.0,0.,24.0,0.,24.0,0.,24.0
1979-07-21 18:59:43.580 ,0,0,0.,24.0,0.,24.0,0.,24.0,0.,24.0
1979-07-21 19:00:07.580 ,1,1,0.,24.0,0.,24.0,0.,24.0,0.,24.0
1979-07-21 19:00:31.580 ,1,0,0.,24.0,0.,24.0,0.,24.0,0.,24.0
1979-07-21 19:00:55.580 ,2,1,0.,24.0,0.,24.0,0.,24.0,0.,24.0
1979-07-21 19:01:19.580 ,2,0,0.,24.0,0.,24.0,0.,24.0,0.,24.0
1979-07-21 19:01:43.580 ,3,1,0.,24.0,0.,24.0,0.,24.0,0.,24.0
1979-07-21 19:02:07.580 ,3,0,0.,24.0,0.,24.0,0.,24.0,0.,24.0
1979-07-21 19:02:31.580 ,4,1,0.,24.0,0.,24.0,0.,24.0,0.,24.0
1979-07-21 19:02:55.580 ,4,0,0.,24.0,0.,24.0,0.,24.0,0.,24.0
1979-07-21 19:03:19.580 ,5,1,0.,24.0,0.,24.0,0.,24.0,0.,24.0
1979-07-21 19:03:43.580 ,5,0,0.,24.0,0.,24.0,0.,24.0,0.,24.0
1979-07-21 19:04:07.580 ,6,1,0.,24.0,0.,24.0,0.,24.0,0.,24.0
1979-07-21 19:04:31.580 ,6,0,0.,24.0,0.,24.0,0.,24.0,0.,24.0
1979-07-21 19:04:55.580 ,7,1,0.,24.0,0.,24.0,0.,24.0,0.,24.0
1979-07-21 19:05:19.580 ,7,0,0.,24.0,0.,24.0,0.,24.0,0.,24.0
1979-07-21 19:05:43.580 ,7,1,0.,24.0,0.,24.0,0.,24.0,0.,24.0
1979-07-21 19:06:07.580 ,7,0,0.,24.0,0.,24.0,0.,24.0,0.,24.0
1979-07-21 19:06:31.580 ,6,1,0.,24.0,0.,24.0,0.,24.0,0.,24.0
1979-07-21 19:06:55.580 ,6,0,0.,24.0,0.,24.0,0.,24.0,0.,24.0
1979-07-21 19:07:19.580 ,5,1,0.,24.0,0.,24.0,0.,24.0,0.,24.0
1979-07-21 19:07:43.580 ,5,0,0.,24.0,0.,24.0,0.,24.0,0.,24.0
1979-07-21 19:08:07.580 ,4,1,0.,24.0,0.,24.0,0.,24.0,0.,24.0
1979-07-21 19:08:31.580 ,4,0,0.,24.0,0.,24.0,0.,24.0,0.,24.0
1979-07-21 19:08:55.580 ,3,1,0.,24.0,0.,24.0,0.,24.0,0.,24.0
1979-07-21 19:09:19.580 ,3,0,0.,24.0,0.,24.0,0.,24.0,0.,24.0
1979-07-21 19:09:43.580 ,2,1,0.,24.0,0.,24.0,0.,24.0,0.,24.0
1979-07-21 19:10:07.580 ,2,0,0.,24.0,0.,24.0,0.,24.0,0.,24.0
1979-07-21 19:10:31.580 ,1,1,0.,24.0,0.,24.0,0.,24.0,0.,24.0
1979-07-21 19:10:55.580 ,1,0,0.,24.0,0.,24.0,0.,24.0,0.,24.0
1979-07-21 19:11:19.580 ,0,1,0.,24.0,0.,24.0,0.,24.0,0.,24.0
1979-07-21 19:11:43.580 ,0,0,0.,24.0,0.,24.0,0.,24.0,0.,24.0
1979-07-21 19:12:07.580 ,0,1,0.,24.0,0.,24.0,0.,24.0,0.,24.0
1979-07-21 19:12:31.580 ,0,0,0.,24.0,0.,24.0,0.,24.0,0.,24.0
1979-07-21 19:12:55.580 ,1,1,0.,24.0,0.,24.0,0.,24.0,0.,24.0
1979-07-21 19:13:19.580 ,1,0,0.,24.0,0.,24.0,0.,24.0,0.,24.0
1979-07-21 19:13:43.580 ,2,1,0.,24.0,0.,24.0,0.,24.0,0.,24.0
1979-07-21 19:14:07.580 ,2,0,0.,24.0,0.,24.0,0.,24.0,0.,24.0
1979-07-21 19:14:31.580 ,3,1,0.,24.0,0.,24.0,0.,24.0,0.,24.0
1979-07-21 19:14:55.580 ,3,0,0.,24.0,0.,24.0,0.,24.0,0.,24.0
1979-07-21 19:15:19.580 ,4,1,0.,24.0,0.,24.0,0.,24.0,0.,24.0
1979-07-21 19:15:43.580 ,4,0,0.,24.0,0.,24.0,0.,24.0,0.,24.0
1979-07-21 19:16:07.580 ,5,1,1.,24.0,0.,24.0,0.,24.0,0.,24.0
1979-07-21 19:16:31.580 ,5,0,0.,24.0,0.,24.0,0.,24.0,0.,24.0
1979-07-21 19:16:55.580 ,6,1,0.,24.0,0.,24.0,0.,24.0,0.,24.0
1979-07-21 19:17:19.580 ,6,0,0.,24.0,0.,24.0,0.,24.0,0.,24.0
1979-07-21 19:17:43.580 ,7,1,0.,24.0,0.,24.0,0.,24.0,0.,24.0
1979-07-21 19:18:07.580 ,7,0,0.,24.0,0.,24.0,0.,24.0,0.,24.0
1979-07-21 19:18:31.580 ,7,1,0.,24.0,0.,24.0,0.,24.0,0.,24.0
1979-07-21 19:18:55.580 ,7,0,0.,24.0,0.,24.0,0.,24.0,0.,24.0
1979-07-21 19:19:19.580 ,6,1,0.,24.0,0.,24.0,0.,24.0,0.,24.0
1979-07-21 19:19:43.580 ,6,0,0.,24.0,0.,24.0,0.,24.0,0.,24.0
1979-07-21 19:20:07.580 ,5,1,0.,24.0,0.,24.0,0.,24.0,0.,24.0
1979-07-21 19:20:31.580 ,5,0,0.,24.0,0.,24.0,0.,24.0,0.,24.0
1979-07-21 19:20:55.580 ,4,1,0.,24.0,0.,24.0,0.,24.0,0.,24.0
1979-07-21 19:21:19.580 ,4,0,0.,24.0,0.,24.0,0.,24.0,0.,24.0
1979-07-21 19:21:43.580 ,3,1,0.,24.0,0.,24.0,0.,24.0,0.,24.0
1979-07-21 19:22:07.580 ,3,0,0.,24.0,0.,24.0,0.,24.0,0.,24.0
1979-07-21 19:22:31.580 ,2,1,0.,24.0,0.,24.0,0.,24.0,0.,24.0
1979-07-21 19:22:55.580 ,2,0,0.,24.0,0.,24.0,0.,24.0,0.,24.0
1979-07-21 19:23:19.580 ,1,1,0.,24.0,0.,24.0,0.,24.0,0.,24.0
1979-07-21 19:23:43.580 ,1,0,0.,24.0,0.,24.0,0.,24.0,0.,24.0
1979-07-21 19:24:07.580 ,0,1,0.,24.0,0.,24.0,0.,24.0,0.,24.0
1979-07-21 19:24:31.580 ,0,0,0.,24.0,0.,24.0,0.,24.0,0.,24.0
1979-07-21 19:24:55.580 ,0,1,0.,24.0,0.,24.0,0.,24.0,0.,24.0
1979-07-21 19:25:19.580 ,0,0,0.,24.0,0.,24.0,0.,24.0,0.,24.0
1979-07-21 19:25:43.580 ,1,1,0.,24.0,0.,24.0,0.,24.0,0.,24.0
1979-07-21 19:26:07.580 ,1,0,0.,24.0,0.,24.0,0.,24.0,0.,24.0
1979-07-21 19:26:31.580 ,2,1,0.,24.0,0.,24.0,0.,24.0,0.,24.0
1979-07-21 19:26:55.580 ,2,0,0.,24.0,0.,24.0,0.,24.0,0.,24.0
1979-07-21 19:27:19.580 ,3,1,0.,24.0,0.,24.0,0.,24.0,0.,24.0
1979-07-21 19:27:43.580 ,3,0,0.,24.0,0.,24.0,0.,24.0,0.,24.0
1979-07-21 19:28:07.580 ,4,1,0.,24.0,0.,24.0,0.,24.0,0.,24.0
1979-07-21 19:28:31.580 ,4,0,0.,24.0,0.,24.0,0.,24.0,0.,24.0
1979-07-21 19:28:55.580 ,5,1,0.,24.0,0.,24.0,0.,24.0,0.,24.0
1979-07-21 19:29:19.580 ,5,0,0.,24.0,0.,24.0,0.,24.0,0.,24.0
1979-07-21 19:29:43.580 ,6,1,0.,24.0,0.,24.0,0.,24.0,0.,24.0
1979-07-21 19:30:07.580 ,6,0,0.,24.0,0.,24.0,0.,24.0,0.,24.0
1979-07-21 19:30:31.580 ,7,0,0.,24.0,0.,24.0,0.,24.0,0.,24.0
1979-07-21 19:30:55.580 ,7,0,0.,24.0,0.,24.0,0.,24.0,0.,24.0
1979-07-21 19:31:19.580 ,5,1,0.,24.0,0.,24.0,0.,24.0,0.,24.0
1979-07-21 19:31:43.580 ,1,1,0.,24.0,0.,24.0,0.,24.0,0.,24.0
1979-07-21 19:32:07.580 ,2,1,0.,24.0,0.,24.0,0.,24.0,0.,24.0
1979-07-21 19:32:31.580 ,6,1,0.,24.0,0.,24.0,0.,24.0,0.,24.0
1979-07-21 19:32:55.580 ,5,1,0.,24.0,0.,24.0,0.,24.0,0.,24.0
1979-07-21 19:33:19.580 ,1,1,0.,24.0,0.,24.0,0.,24.0,0.,24.0
1979-07-21 19:33:43.580 ,2,1,1.,24.0,0.,24.0,0.,24.0,0.,24.0
1979-07-21 19:34:07.580 ,6,1,0.,24.0,0.,24.0,0.,24.0,0.,24.0
1979-07-21 19:34:31.580 ,5,1,0.,24.0,0.,24.0,0.,24.0,0.,24.0
1979-07-21 19:34:55.580 ,1,1,0.,24.0,0.,24.0,0.,24.0,0.,24.0
1979-07-21 19:35:19.580 ,2,1,0.,24.0,0.,24.0,0.,24.0,0.,24.0
1979-07-21 19:35:43.580 ,6,1,0.,24.0,0.,24.0,0.,24.0,0.,24.0
1979-07-21 19:36:07.580 ,5,1,0.,24.0,0.,24.0,0.,24.0,0.,24.0
1979-07-21 19:36:31.580 ,1,1,0.,24.0,0.,24.0,0.,24.0,0.,24.0
1979-07-21 19:36:55.580 ,2,1,0.,24.0,0.,24.0,0.,24.0,0.,24.0
1979-07-21 19:37:19.580 ,6,1,0.,24.0,0.,24.0,0.,24.0,0.,24.0
1979-07-21 19:37:43.580 ,5,1,0.,24.0,0.,24.0,0.,24.0,0.,24.0
1979-07-21 19:38:07.580 ,1,1,0.,24.0,0.,24.0,0.,24.0,0.,24.0
1979-07-21 19:38:31.580 ,2,1,0.,24.0,0.,24.0,0.,24.0,0.,24.0
1979-07-21 19:38:55.580 ,6,1,0.,24.0,0.,24.0,0.,24.0,0.,24.0
1979-07-21 19:39:19.580 ,5,1,0.,24.0,0.,24.0,0.,24.0,0.,24.0
1979-07-21 19:39:43.580 ,1,1,0.,24.0,0.,24.0,0.,24.0,0.,24.0
1979-07-21 19:40:07.580 ,2,1,0.,24.0,0.,24.0,0.,24.0,0.,24.0
1979-07-21 19:40:31.580 ,6,1,0.,24.0,0.,24.0,0.,24.0,0.,24.0
1979-07-21 19:40:55.580 ,5,1,0.,24.0,0.,24.0,0.,24.0,0.,24.0
1979-07-21 19:41:19.580 ,1,1,0.,24.0,0.,24.0,0.,24.0,0.,24.0
1979-07-21 19:41:43.580 ,0,0,0.,24.0,0.,24.0,0.,24.0,0.,24.0
1979-07-21 19:42:07.580 ,0,0,0.,24.0,0.,24.0,0.,24.0,0.,24.0
1979-07-21 19:42:31.580 ,5,1,0.,24.0,0.,24.0,0.,24.0,0.,24.0
1979-07-21 19:42:55.580 ,5,0,0.,24.0,0.,24.0,0.,24.0,0.,24.0
1979-07-21 19:43:19.580 ,4,1,0.,24.0,0.,24.0,0.,24.0,0.,24.0
1979-07-21 19:43:43.580 ,4,0,0.,24.0,0.,24.0,0.,24.0,0.,24.0
1979-07-21 19:44:07.580 ,3,1,0.,24.0,0.,24.0,0.,24.0,0.,24.0
1979-07-21 19:44:31.580 ,3,0,0.,24.0,0.,24.0,0.,24.0,0.,24.0
1979-07-21 19:44:55.580 ,2,1,0.,24.0,0.,24.0,0.,24.0,0.,24.0
1979-07-21 19:45:19.580 ,2,0,0.,24.0,0.,24.0,0.,24.0,0.,24.0
1979-07-21 19:45:43.580 ,1,1,0.,24.0,0.,24.0,0.,24.0,0.,24.0
1979-07-21 19:46:07.580 ,1,0,0.,24.0,0.,24.0,0.,24.0,0.,24.0
1979-07-21 19:46:31.580 ,0,1,0.,24.0,0.,24.0,0.,24.0,0.,24.0
1979-07-21 19:46:55.580 ,0,0,0.,24.0,0.,24.0,0.,24.0,0.,24.0
1979-07-21 19:47:19.580 ,0,1,0.,24.0,0.,24.0,0.,24.0,0.,24.0
1979-07-21 19:47:43.580 ,0,0,0.,24.0,0.,24.0,0.,24.0,0.,24.0
1979-07-21 19:48:07.580 ,1,1,0.,24.0,0.,24.0,0.,24.0,0.,24.0
1979-07-21 19:48:31.580 ,1,0,0.,24.0,0.,24.0,0.,24.0,0.,24.0
1979-07-21 19:48:55.580 ,2,1,0.,24.0,0.,24.0,0.,24.0,0.,24.0
1979-07-21 19:49:19.580 ,2,0,0.,24.0,0.,24.0,0.,24.0,0.,24.0
1979-07-21 19:49:43.580 ,3,1,0.,24.0,0.,24.0,0.,24.0,0.,24.0
1979-07-21 19:50:07.580 ,3,0,0.,24.0,0.,24.0,0.,24.0,0.,24.0
1979-07-21 19:50:31.580 ,4,1,0.,24.0,0.,24.0,0.,24.0,0.,24.0
1979-07-21 19:50:55.580 ,4,0,0.,24.0,0.,24.0,0.,24.0,0.,24.0
1979-07-21 19:51:19.580 ,5,1,0.,24.0,0.,24.0,0.,24.0,0.,24.0
1979-07-21 19:51:43.580 ,5,0,0.,24.0,0.,24.0,0.,24.0,0.,24.0
1979-07-21 19:52:07.580 ,6,1,0.,24.0,0.,24.0,0.,24.0,0.,24.0
1979-07-21 19:52:31.580 ,6,0,0.,24.0,0.,24.0,0.,24.0,0.,24.0
1979-07-21 19:52:55.580 ,7,1,0.,24.0,0.,24.0,0.,24.0,0.,24.0
1979-07-21 19:53:19.580 ,7,0,0.,24.0,0.,24.0,0.,24.0,0.,24.0
1979-07-21 19:53:43.580 ,7,1,0.,24.0,0.,24.0,0.,24.0,0.,24.0
1979-07-21 19:54:07.580 ,7,0,0.,24.0,0.,24.0,0.,24.0,0.,24.0
1979-07-21 19:54:31.580 ,6,1,0.,24.0,0.,24.0,0.,24.0,0.,24.0
1979-07-21 19:54:55.580 ,6,0,0.,24.0,0.,24.0,0.,24.0,0.,24.0
1979-07-21 19:55:19.580 ,5,1,0.,24.0,0.,24.0,0.,24.0,0.,24.0
1979-07-21 19:55:43.580 ,5,0,0.,24.0,0.,24.0,0.,24.0,0.,24.0
1979-07-21 19:56:07.580 ,4,1,0.,24.0,0.,24.0,0.,24.0,0.,24.0
1979-07-21 19:56:31.580 ,4,0,1.,24.0,0.,24.0,0.,24.0,0.,24.0
1979-07-21 19:56:55.580 ,3,1,0.,24.0,0.,24.0,0.,24.0,0.,24.0
1979-07-21 19:57:19.580 ,3,0,0.,24.0,0.,24.0,0.,24.0,0.,24.0
1979-07-21 19:57:43.580 ,2,1,0.,24.0,0.,24.0,0.,24.0,0.,24.0
1979-07-21 19:58:07.580 ,2,0,0.,24.0,0.,24.0,0.,24.0,0.,24.0
1979-07-21 19:58:31.580 ,1,1,0.,24.0,0.,24.0,0.,24.0,0.,24.0
1979-07-21 19:58:55.580 ,1,0,0.,24.0,0.,24.0,0.,24.0,0.,24.0
1979-07-21 19:59:19.580 ,0,1,0.,24.0,0.,24.0,0.,24.0,0.,24.0
1979-07-21 19:59:43.580 ,0,0,0.,24.0,0.,24.0,0.,24.0,0.,24.0
1979-07-21 20:00:07.580 ,0,1,0.,24.0,0.,24.0,0.,24.0,0.,24.0
1979-07-21 20:00:31.580 ,0,0,0.,24.0,0.,24.0,0.,24.0,0.,24.0
1979-07-21 20:00:55.580 ,1,1,0.,24.0,0.,24.0,0.,24.0,0.,24.0
1979-07-21 20:01:19.580 ,1,0,0.,24.0,0.,24.0,0.,24.0,0.,24.0
1979-07-21 20:01:43.580 ,2,1,0.,24.0,0.,24.0,0.,24.0,0.,24.0
1979-07-21 20:02:07.580 ,2,0,0.,24.0,0.,24.0,0.,24.0,0.,24.0
1979-07-21 20:02:31.580 ,3,1,0.,24.0,0.,24.0,0.,24.0,0.,24.0
1979-07-21 20:02:55.580 ,3,0,0.,24.0,0.,24.0,0.,24.0,0.,24.0
1979-07-21 20:03:19.580 ,4,1,0.,24.0,0.,24.0,0.,24.0,0.,24.0
1979-07-21 20:03:43.580 ,4,0,0.,24.0,0.,24.0,0.,24.0,0.,24.0
1979-07-21 20:04:07.580 ,5,1,0.,24.0,0.,24.0,0.,24.0,0.,24.0
1979-07-21 20:04:31.580 ,5,0,0.,24.0,0.,24.0,0.,24.0,0.,24.0
1979-07-21 20:04:55.580 ,6,1,0.,24.0,0.,24.0,0.,24.0,0.,24.0
1979-07-21 20:05:19.580 ,6,0,0.,24.0,0.,24.0,0.,24.0,0.,24.0
1979-07-21 20:05:43.580 ,7,1,0.,24.0,0.,24.0,0.,24.0,0.,24.0
1979-07-21 20:06:07.580 ,7,0,0.,24.0,0.,24.0,0.,24.0,0.,24.0
1979-07-21 20:06:31.580 ,7,1,0.,24.0,0.,24.0,0.,24.0,0.,24.0
1979-07-21 20:06:55.580 ,7,0,0.,24.0,0.,24.0,0.,24.0,0.,24.0
1979-07-21 20:07:19.580 ,6,1,0.,24.0,0.,24.0,0.,24.0,0.,24.0
1979-07-21 20:07:43.580 ,6,0,0.,24.0,0.,24.0,0.,24.0,0.,24.0
1979-07-21 20:08:07.580 ,5,1,0.,24.0,0.,24.0,0.,24.0,0.,24.0
1979-07-21 20:08:31.580 ,5,0,0.,24.0,0.,24.0,0.,24.0,0.,24.0
1979-07-21 20:08:55.580 ,4,1,0.,24.0,0.,24.0,0.,24.0,0.,24.0
1979-07-21 20:09:19.580 ,4,0,0.,24.0,0.,24.0,0.,24.0,0.,24.0
1979-07-21 20:09:43.580 ,3,1,0.,24.0,0.,24.0,0.,24.0,0.,24.0
1979-07-21 20:10:07.580 ,3,0,0.,24.0,0.,24.0,0.,24.0,0.,24.0
1979-07-21 20:10:31.580 ,2,1,0.,24.0,0.,24.0,0.,24.0,0.,24.0
1979-07-21 20:10:55.580 ,2,0,0.,24.0,0.,24.0,0.,24.0,0.,24.0
1979-07-21 20:11:19.580 ,1,1,0.,24.0,0.,24.0,0.,24.0,0.,24.0
1979-07-21 20:11:43.580 ,1,0,0.,24.0,0.,24.0,0.,24.0,0.,24.0
1979-07-21 20:12:07.580 ,0,1,0.,24.0,0.,24.0,0.,24.0,0.,24.0
1979-07-21 20:12:31.580 ,0,0,0.,24.0,0.,24.0,0.,24.0,0.,24.0
1979-07-21 20:12:55.580 ,0,1,0.,24.0,0.,24.0,0.,24.0,0.,24.0
1979-07-21 20:13:19.580 ,0,0,0.,24.0,0.,24.0,0.,24.0,0.,24.0
1979-07-21 20:13:43.580 ,1,1,0.,24.0,0.,24.0,0.,24.0,0.,24.0
1979-07-21 20:14:07.580 ,1,0,0.,24.0,0.,24.0,0.,24.0,0.,24.0
1979-07-21 20:14:31.580 ,2,1,0.,24.0,0.,24.0,0.,24.0,0.,24.0
1979-07-21 20:14:55.580 ,2,0,0.,24.0,0.,24.0,0.,24.0,0.,24.0
1979-07-21 20:15:19.580 ,3,1,0.,24.0,0.,24.0,0.,24.0,0.,24.0
1979-07-21 20:15:43.580 ,3,0,0.,24.0,0.,24.0,0.,24.0,0.,24.0
1979-07-21 20:16:07.580 ,4,1,0.,24.0,0.,24.0,0.,24.0,0.,24.0
1979-07-21 20:16:31.580 ,4,0,0.,24.0,0.,24.0,0.,24.0,0.,24.0
1979-07-21 20:16:55.580 ,5,1,0.,24.0,0.,24.0,0.,24.0,0.,24.0
1979-07-21 20:17:19.580 ,5,0,0.,24.0,0.,24.0,0.,24.0,0.,24.0
1979-07-21 20:17:43.580 ,6,1,1.,24.0,0.,24.0,0.,24.0,0.,24.0
1979-07-21 20:18:07.580 ,6,0,0.,24.0,0.,24.0,0.,24.0,0.,24.0
1979-07-21 20:18:31.580 ,7,0,0.,24.0,0.,24.0,0.,24.0,0.,24.0
1979-07-21 20:18:55.580 ,7,0,0.,24.0,0.,24.0,0.,24.0,0.,24.0
1979-07-21 20:19:19.580 ,5,1,0.,24.0,0.,24.0,0.,24.0,0.,24.0
1979-07-21 20:19:43.580 ,1,1,0.,24.0,0.,24.0,0.,24.0,0.,24.0
1979-07-21 20:20:07.580 ,2,1,0.,24.0,0.,24.0,0.,24.0,0.,24.0
1979-07-21 20:20:31.580 ,6,1,0.,24.0,0.,24.0,0.,24.0,0.,24.0
1979-07-21 20:20:55.580 ,5,1,0.,24.0,0.,24.0,0.,24.0,0.,24.0
1979-07-21 20:21:19.580 ,1,1,0.,24.0,0.,24.0,0.,24.0,0.,24.0
1979-07-21 20:21:43.580 ,2,1,0.,24.0,0.,24.0,0.,24.0,0.,24.0
1979-07-21 20:22:07.580 ,6,1,0.,24.0,0.,24.0,0.,24.0,0.,24.0
1979-07-21 20:22:31.580 ,5,1,0.,24.0,0.,24.0,0.,24.0,0.,24.0
1979-07-21 20:22:55.580 ,1,1,0.,24.0,0.,24.0,0.,24.0,0.,24.0
1979-07-21 20:23:19.580 ,2,1,0.,24.0,0.,24.0,0.,24.0,0.,24.0
1979-07-21 20:23:43.580 ,6,1,0.,24.0,0.,24.0,0.,24.0,0.,24.0
1979-07-21 20:24:07.580 ,5,1,0.,24.0,0.,24.0,0.,24.0,0.,24.0
1979-07-21 20:24:31.580 ,1,1,0.,24.0,0.,24.0,0.,24.0,0.,24.0
1979-07-21 20:24:55.580 ,2,1,0.,24.0,0.,24.0,0.,24.0,0.,24.0
1979-07-21 20:25:19.580 ,6,1,0.,24.0,0.,24.0,0.,24.0,0.,24.0
1979-07-21 20:25:43.580 ,5,1,0.,24.0,0.,24.0,0.,24.0,0.,24.0
1979-07-21 20:26:07.580 ,1,1,0.,24.0,0.,24.0,0.,24.0,0.,24.0
1979-07-21 20:26:31.580 ,2,1,0.,24.0,0.,24.0,0.,24.0,0.,24.0
1979-07-21 20:26:55.580 ,6,1,0.,24.0,0.,24.0,0.,24.0,0.,24.0
1979-07-21 20:27:19.580 ,5,1,0.,24.0,0.,24.0,0.,24.0,0.,24.0
1979-07-21 20:27:43.580 ,1,1,0.,24.0,0.,24.0,0.,24.0,0.,24.0
1979-07-21 20:28:07.580 ,2,1,0.,24.0,0.,24.0,0.,24.0,0.,24.0
1979-07-21 20:28:31.580 ,6,1,0.,24.0,0.,24.0,0.,24.0,0.,24.0
1979-07-21 20:28:55.580 ,5,1,0.,24.0,0.,24.0,0.,24.0,0.,24.0
1979-07-21 20:29:19.580 ,1,1,0.,24.0,0.,24.0,0.,24.0,0.,24.0
1979-07-21 20:29:43.580 ,0,0,0.,24.0,0.,24.0,0.,24.0,0.,24.0
1979-07-21 20:30:07.580 ,0,0,0.,24.0,0.,24.0,0.,24.0,0.,24.0
1979-07-21 20:30:31.580 ,5,1,0.,24.0,0.,24.0,0.,24.0,0.,24.0
1979-07-21 20:30:55.580 ,5,0,0.,24.0,0.,24.0,0.,24.0,0.,24.0
1979-07-21 20:31:19.580 ,4,1,0.,24.0,0.,24.0,0.,24.0,0.,24.0
1979-07-21 20:31:43.580 ,4,0,1.,24.0,0.,24.0,0.,24.0,0.,24.0
1979-07-21 20:32:07.580 ,3,1,0.,24.0,0.,24.0,0.,24.0,0.,24.0
1979-07-21 20:32:31.580 ,3,0,0.,24.0,0.,24.0,0.,24.0,0.,24.0
1979-07-21 20:32:55.580 ,2,1,0.,24.0,0.,24.0,0.,24.0,0.,24.0
1979-07-21 20:33:19.580 ,2,0,0.,24.0,0.,24.0,0.,24.0,0.,24.0
1979-07-21 20:33:43.580 ,1,1,0.,24.0,0.,24.0,0.,24.0,0.,24.0
1979-07-21 20:34:07.580 ,1,0,0.,24.0,0.,24.0,0.,24.0,0.,24.0
1979-07-21 20:34:31.570 ,0,1,0.,24.0,0.,24.0,0.,24.0,0.,24.0